アトラス彗星

C/2017 M4 ( ATLAS )

English version
Home page
Updated on January 8, 2018

---------------------------------------------------------------------

・ プロフィール

発見日 2017年6月21日
発見光度 18.3等
発見者 Asteroid Terrestrial-impact Last Alert System (ATLAS) Team

・ 写真集

・ 軌道要素

Epoch 2019 Feb. 6.0 TT = JDT 2458520.5
T 2019 Jan. 18.18519 TT                                 MPCW
q   3.2516196            (2000.0)            P               Q
z  -0.0007180      Peri.  167.62430     -0.34655801     -0.32820312
 +/-0.0000030      Node    65.86764     -0.92162706     +0.29355115
e   1.0023347      Incl.  105.65769     -0.17464567     -0.89783653
From 745 observations 2017 June 16-Nov. 23, mean residual 0".4.

・ 星図

・ 光度変化

        m1 = 6.0 + 5 logΔ + 10.0 log r

---------------------------------------------------------------------

軌道要素はM.P.E.C. 2017-X08に掲載されたものです。
星図はステラナビゲータ Ver.10 (アストロアーツ) で作成したものです。
光度グラフはComet for Windowsで作成したものです。

---------------------------------------------------------------------

Copyright(C) Seiichi Yoshida (comet@aerith.net). All rights reserved.